Probability
0 0 0 0 0 0 0 0 1 1 3 6 7 5 6 7 9 12 15 14 11 11 12 13 13 13 12 9 7 7 8 9 8 8 7 7 7 8 8 7 5 4 3 3
0 0 0 0 0 0 0 0 2 3 4 5 5 4 4 6 9 12 14 14 11 11 11 12 13 12 11 7 5 5 7 7 6 5 5 5 6 7 6 5 4 3 3 3
0 0 0 0 0 0 1 1 3 5 5 4 4 3 3 4 7 10 12 13 13 12 11 12 12 11 8 5 3 4 4 4 3 3 3 4 5 5 4 3 3 3 3 3
0 0 0 1 1 1 2 4 5 6 5 4 4 4 3 4 6 8 10 12 14 13 12 11 10 9 6 3 2 2 2 2 2 3 3 3 4 4 4 3 3 3 3 3
0 0 1 2 2 3 4 5 6 6 5 4 4 5 4 4 6 9 10 11 12 12 11 10 9 6 4 2 1 1 0 1 2 3 3 3 3 2 3 3 3 2 2 2
0 0 1 3 3 4 5 6 5 4 4 4 5 5 4 4 6 9 10 10 11 11 10 8 6 4 3 1 0 0 0 1 2 3 3 3 2 1 2 2 1 1 1 2
0 0 2 3 4 3 4 4 3 2 2 4 5 5 4 4 5 7 9 10 10 11 10 7 5 3 2 1 0 0 1 1 2 3 3 2 1 0 1 1 0 1 2 2
1 0 1 3 4 2 1 1 1 2 3 4 5 6 5 4 4 5 8 9 10 11 9 6 4 3 2 1 1 1 2 2 2 2 1 1 0 0 0 0 0 1 2 2
2 1 0 1 1 1 0 0 1 2 3 3 4 5 4 4 3 5 6 7 8 8 8 6 4 3 3 2 2 3 3 3 3 1 0 0 0 0 0 0 0 0 1 1
2 1 0 0 0 0 0 0 1 2 2 1 1 2 2 2 2 3 4 4 5 5 5 5 3 3 4 4 3 4 4 3 3 1 0 0 1 1 1 0 0 0 0 0
1 0 0 0 0 0 0 1 1 1 1 0 0 0 1 1 1 2 3 3 3 3 3 3 2 2 3 5 4 4 4 4 3 2 0 1 2 2 1 0 0 0 0 0
0 0 0 0 0 0 0 1 2 1 1 0 0 0 0 0 1 3 4 4 3 3 3 3 3 3 4 5 5 4 4 3 2 1 0 1 2 3 2 0 0 0 0 0
0 0 0 0 0 0 0 1 2 2 2 1 0 0 0 0 1 3 4 4 4 3 4 4 5 6 6 6 6 5 4 2 1 0 0 0 1 2 1 0 0 0 0 0
0 0 0 0 0 0 0 0 1 2 2 1 0 0 0 0 1 3 4 4 3 4 4 4 5 7 7 6 6 6 5 3 1 0 0 0 0 1 1 0 0 0 0 0
0 0 0 0 0 0 0 0 0 1 1 0 0 0 0 0 1 2 3 3 3 3 4 3 3 4 5 6 6 6 6 4 1 0 0 0 0 0 0 0 0 0 0 0
0 0 0 0 0 0 0 0 0 0 0 0 0 0 0 0 1 2 3 3 3 3 3 2 1 2 3 4 5 6 6 5 2 0 0 0 0 0 0 0 0 0 0 0
0 0 0 0 0 0 0 0 0 0 0 1 1 1 0 0 1 3 3 3 3 3 3 1 0 1 2 3 4 5 6 5 2 1 0 0 0 0 0 0 0 0 0 0
0 0 0 0 0 0 0 0 0 0 0 1 2 2 1 2 2 3 3 3 3 3 2 1 0 0 1 2 3 4 4 4 3 2 1 0 0 0 0 0 0 0 0 0
0 0 0 0 0 0 0 0 0 0 0 1 2 3 4 4 4 3 3 3 3 3 2 1 0 0 0 1 2 2 2 2 2 2 2 1 0 0 0 0 0 0 0 0
0 0 0 0 0 0 0 0 0 0 0 0 1 2 3 4 3 2 2 2 2 2 1 0 0 0 0 0 1 1 1 1 0 1 1 1 0 0 0 0 0 0 0 0
0 0 0 0 0 0 0 0 0 0 0 0 0 1 1 1 1 1 1 1 1 1 0 0 0 0 0 0 0 0 0 0 0 0 0 0 0 0 0 0 0 0 0 0
0 0 0 0 0 0 0 0 0 0 0 0 0 0 0 0 0 0 0 0 0 0 0 0 0 0 0 0 0 0 0 0 0 0 0 0 0 0 0 0 0 0 0 0
0 0 0 0 0 0 0 0 0 0 0 0 0 0 0 0 0 0 0 0 0 0 0 0 0 0 0 0 0 0 0 0 0 0 0 0 0 0 0 0 0 0 0 0
0 0 0 0 0 0 0 0 0 0 0 0 0 0 0 0 0 0 0 0 0 0 0 0 0 0 0 0 0 0 0 0 0 0 0 0 0 0 0 0 0 0 0 0
0 0 0 0 0 0 0 0 0 0 0 0 0 0 0 0 0 0 0 0 0 0 0 0 0 0 0 0 0 0 0 0 0 0 0 0 0 0 0 0 0 0 0 0
0 0 0 0 0 0 0 0 0 0 0 0 0 0 0 0 0 0 0 0 0 0 0 0 0 0 0 0 0 0 0 0 0 0 0 0 0 0 0 0 0 0 0 0
0 0 0 0 0 0 0 0 0 0 0 0 0 0 0 0 0 0 0 0 0 0 0 0 0 0 0 0 0 0 0 0 0 0 0 0 0 0 0 0 0 0 0 0
Wind_Speed
3 3 1 2 4 2 1 4 5 4 4 4 3 2 1 2 3 4 6 5 5 5 4 3 2 2 3 3 3 3 4 3 3 2 2 2 2 2 2 2 3 3 2 2
2 2 1 3 5 3 1 1 2 2 1 1 1 2 2 3 4 5 5 4 3 4 4 4 4 3 3 3 2 3 4 3 3 2 2 2 2 2 2 2 2 2 2 2
3 4 1 2 3 2 1 1 2 2 3 1 2 2 2 3 4 4 4 4 4 3 4 4 3 4 3 3 3 3 3 3 3 3 3 2 2 2 2 2 2 2 2 2
1 2 2 3 2 3 4 5 4 3 2 2 2 2 2 2 3 3 3 3 2 2 2 3 3 3 3 3 3 3 2 2 3 3 3 2 2 2 2 2 2 2 2 2
2 2 2 2 3 2 1 3 4 3 2 1 2 4 4 4 2 3 3 2 2 3 3 3 3 4 4 3 2 2 2 2 2 3 3 2 2 3 2 2 2 2 1 2
2 2 3 3 5 4 3 2 5 3 2 1 3 3 1 2 2 2 2 2 2 3 4 3 2 3 4 3 2 2 2 2 2 2 3 3 3 3 2 2 2 2 1 1
2 2 1 5 6 4 3 2 3 2 2 2 2 2 2 2 3 2 3 3 3 4 3 2 2 4 3 2 1 2 1 1 1 1 2 2 2 2 2 2 1 1 1 1
2 2 3 6 4 3 2 0 1 3 3 3 4 4 4 4 5 4 4 4 4 4 3 2 2 4 3 1 1 2 2 2 1 1 1 1 1 1 1 2 2 1 0 1
2 2 2 2 1 1 2 3 2 2 3 4 5 4 4 4 4 4 4 3 3 4 4 2 2 3 2 1 1 3 3 2 1 1 1 1 1 1 1 1 1 1 1 1
2 1 1 2 2 2 2 3 3 3 3 4 4 4 4 3 3 3 3 3 3 4 3 2 2 2 1 1 2 3 3 1 1 1 1 1 1 1 1 0 1 1 1 2
1 1 1 3 2 1 2 4 4 4 4 3 4 4 3 3 2 2 2 2 3 3 2 1 1 1 1 2 2 3 2 1 1 1 1 1 1 1 1 1 1 2 2 2
3 4 2 2 2 1 2 2 3 4 3 3 3 3 3 2 1 1 1 1 2 1 1 1 1 1 1 2 2 3 2 1 1 0 1 1 1 2 4 2 2 2 1 1
3 2 2 1 0 2 3 2 3 3 3 2 2 2 2 2 1 1 1 1 1 0 0 0 1 1 1 1 2 2 1 0 0 0 0 0 0 1 1 3 3 3 3 2
1 2 1 0 0 1 2 2 3 2 2 2 1 2 2 2 1 1 0 0 0 0 0 1 1 0 0 1 2 1 1 0 1 1 1 1 1 1 1 1 1 2 3 3
1 1 2 1 1 2 3 3 2 1 1 2 2 1 1 1 1 1 1 0 1 1 1 0 0 1 1 1 1 1 1 1 1 1 1 1 1 1 1 1 1 1 2 3
1 1 2 2 2 2 2 2 2 1 1 2 1 1 1 1 1 0 0 0 1 0 1 1 1 2 1 1 1 0 1 1 1 1 1 1 1 1 1 1 1 1 1 1
2 1 1 1 1 1 1 1 2 1 1 1 1 1 1 1 1 0 1 1 1 1 1 1 2 2 1 1 2 1 1 1 1 1 1 1 1 1 1 2 2 2 2 2
3 3 3 2 2 1 1 1 1 1 1 1 1 1 2 1 1 1 2 1 0 1 1 1 1 0 1 0 0 0 0 0 1 1 1 1 1 1 1 1 2 2 2 1
2 2 2 2 2 2 1 1 0 0 1 1 1 1 1 1 1 1 1 0 0 1 2 2 1 0 0 1 0 0 0 0 1 1 1 1 1 1 1 1 1 1 1 1
2 3 3 3 3 3 2 1 1 1 1 1 1 1 0 0 1 1 1 1 2 3 3 2 1 1 1 1 0 1 1 1 1 1 1 1 1 1 1 1 1 1 1 1
3 3 3 3 2 2 2 2 1 1 1 1 1 0 1 2 1 1 1 1 3 2 2 2 1 1 1 1 0 1 1 1 1 2 2 1 1 1 1 1 1 2 2 2
2 2 2 2 2 1 1 1 1 1 1 0 1 1 1 2 2 1 2 3 3 3 1 1 1 2 2 1 1 1 1 2 2 2 2 2 2 2 2 2 2 2 2 2
2 2 2 1 1 1 0 0 0 0 0 1 1 1 2 2 2 1 2 3 2 3 2 2 3 3 3 1 1 1 2 2 2 2 2 2 2 2 2 2 2 2 2 2
2 2 1 1 1 1 0 1 1 1 1 2 2 2 2 2 2 2 3 3 3 3 2 3 4 3 3 1 1 2 2 2 2 2 2 2 1 1 1 2 2 1 2 2
2 2 1 1 1 1 2 2 1 1 1 2 2 2 2 2 2 3 2 2 3 3 3 3 5 4 3 1 2 2 2 2 2 1 1 1 1 1 1 1 1 1 2 2
2 2 2 2 2 2 1 1 1 1 1 1 2 2 2 2 1 1 1 2 2 3 2 2 2 2 2 2 2 1 1 1 1 1 1 1 1 1 1 1 2 2 2 2
2 2 1 0 1 1 1 1 1 1 1 1 2 2 2 1 1 1 1 1 1 1 1 1 1 1 1 1 1 1 1 1 1 0 0 1 1 1 2 2 2 2 2 2
Wind_Direction
222 245 262 326 316 316 200 192 196 213 202 216 206 191 159 131 122 120 124 127 137 134 132 135 130 132 150 155 155 153 149 152 160 159 152 151 154 165 166 161 160 163 158 167
300 301 13 11 344 323 308 243 167 143 241 229 159 122 99 101 111 117 124 123 126 138 144 152 151 142 136 140 145 142 150 160 161 153 150 158 175 175 164 164 166 159 165 179
267 286 17 357 332 11 48 53 154 201 230 156 83 110 128 129 122 124 133 138 145 152 159 154 157 151 153 153 145 144 158 161 166 166 170 180 177 162 173 178 167 169 177 181
216 13 219 241 323 61 69 46 44 64 105 138 138 120 102 104 128 133 135 136 147 152 153 156 146 136 137 125 131 136 150 166 166 167 178 182 169 179 191 180 177 187 198 202
127 159 238 303 333 346 64 19 21 69 71 95 106 69 45 35 80 135 148 152 165 167 156 141 136 135 125 118 121 133 167 187 181 173 177 175 178 189 192 181 198 209 196 193
125 151 218 279 312 327 85 57 352 30 51 89 80 81 338 358 44 96 99 106 118 122 114 114 125 125 117 121 133 177 197 199 196 179 178 186 195 194 193 187 197 200 205 210
142 162 263 308 319 2 87 242 323 9 53 83 90 165 175 71 62 74 91 91 91 102 109 126 131 116 117 121 176 201 178 160 165 169 175 174 177 185 185 175 163 181 208 242
108 138 265 323 14 64 197 237 46 37 47 82 91 91 89 73 62 63 69 71 79 89 85 77 104 110 114 152 201 143 124 116 119 143 180 122 131 162 160 137 141 178 192 317
142 183 256 329 83 136 129 102 70 51 48 82 85 84 83 75 68 67 68 67 71 82 76 47 59 102 121 187 121 111 104 100 101 85 45 82 114 87 75 117 143 186 185 226
85 9 349 20 43 44 65 86 82 84 82 84 86 87 83 80 70 64 59 61 61 75 75 48 25 48 75 97 116 114 117 119 113 99 55 52 58 79 104 136 186 200 209 225
71 271 17 0 358 38 66 78 80 71 68 76 88 87 88 81 76 75 61 57 68 72 73 50 28 23 36 77 103 111 117 119 112 111 117 86 48 42 116 205 211 210 215 211
227 242 190 244 265 104 88 77 82 88 60 49 73 91 91 81 70 93 72 62 71 65 51 22 43 37 32 64 99 109 101 98 122 124 128 129 103 31 25 35 10 3 328 220
202 197 170 220 80 104 110 102 87 87 90 64 58 94 105 99 66 69 68 62 63 103 164 133 111 100 53 76 101 108 108 142 144 131 137 149 152 144 347 353 352 339 329 327
116 105 82 25 160 139 133 129 108 91 85 88 54 76 98 91 62 57 48 270 270 82 87 121 120 127 262 122 107 109 134 164 172 187 187 194 205 222 216 222 313 322 321 328
6 124 166 172 123 113 115 115 102 88 90 93 80 79 91 111 135 236 264 321 65 56 35 85 126 268 281 155 134 136 154 196 203 192 186 192 215 239 250 246 251 288 322 341
197 120 87 80 97 106 109 116 116 93 99 111 115 127 132 144 161 199 252 120 106 66 274 260 251 249 236 175 160 178 225 233 225 201 201 203 215 225 262 267 261 268 282 290
149 160 128 109 117 133 156 173 170 175 156 131 139 138 115 87 81 37 271 231 193 201 225 244 260 268 242 194 187 203 237 257 247 210 210 216 219 228 236 243 248 256 256 249
162 169 167 162 149 129 87 92 109 142 182 211 152 129 131 127 173 251 258 259 297 357 310 291 278 256 1 354 204 183 189 271 260 224 226 237 236 233 239 244 253 260 271 273
117 122 115 94 90 101 95 86 106 91 87 96 98 136 154 173 217 262 268 34 133 259 279 290 295 204 332 315 277 190 186 337 312 273 244 265 275 262 251 252 261 269 277 299
100 96 89 81 79 84 71 55 68 63 58 65 80 75 66 262 254 270 278 232 227 226 237 247 250 238 226 261 268 214 234 256 272 259 250 243 236 250 253 244 245 255 264 269
93 88 86 86 82 75 65 55 66 52 24 50 76 235 234 249 255 234 211 258 272 255 241 248 234 233 231 236 254 233 250 254 248 245 237 241 239 246 249 243 246 244 249 255
123 110 98 93 92 73 48 53 67 68 20 346 291 286 257 262 270 272 244 233 248 245 228 236 232 231 234 225 243 252 262 262 248 243 237 228 226 235 240 239 246 251 248 248
140 134 125 128 137 155 50 20 27 52 291 266 253 265 254 243 233 226 270 267 249 236 232 242 243 244 240 227 238 256 261 256 247 243 245 233 223 222 224 229 239 242 239 247
170 162 168 167 130 103 334 270 259 256 268 267 254 252 253 266 281 260 241 252 250 244 240 249 245 250 253 234 241 252 259 258 253 249 247 240 226 222 225 227 232 240 245 251
188 174 164 147 152 212 233 252 286 307 303 299 293 286 269 235 239 258 253 254 255 244 248 254 249 253 252 242 249 255 261 263 260 256 247 241 237 240 246 257 247 247 259 258
200 196 198 197 197 209 215 212 240 279 276 285 290 281 279 276 271 272 265 269 268 259 258 264 261 259 253 244 232 237 259 277 282 281 248 239 252 249 252 264 260 260 269 272
192 184 171 187 258 215 195 203 215 252 246 237 265 287 302 321 333 326 313 304 294 282 283 293 281 258 249 257 260 258 265 265 260 264 250 243 238 242 245 256 261 272 279 286